Content
SEND FEEDBACK

Daily
Averages
Monthly
Summary
United States of America

MEYERS, CALIFORNIA


Home > North America > United States > California
Elevation: 6470 feet     Latitude: 38 49N     Longitude: 120 01W

WEATHER
 
SELECT A DAY
Number of Records: 174,420;   Date Range: 1/1/95 - 7/29/14
 
SHARE

PRINT THIS DATA

[ ← Previous Day ]
WEATHER ALMANAC - FEBRUARY 8, 2013
[ Next Day → ]
[ °C ]   °F
Weather ElementAverageHighLow
Temperature22.6 °F28.9 °F (2:53 pm)10.9 °F (4:53 am)
Dewpoint12.1 °F19.4 °F (2:27 pm)6.1 °F (4:53 am)
Humidity64.9 %81 % (4:53 am)49 % (4:53 pm)
Barometer29.85 in29.95 in (8:53 pm)29.78 in (1:10 pm)
Wind Speed3.1 mph8.1 mph (12:53 pm)
Weather ElementAverage
Visibility7.7 mi
Wind DirectionNE (44.7 °)

Weather ElementTotal
Precipitation0.06 in
Heating Degree Days45.1 (Base 65)
Averaged from 32 records on February 8, 2013
WEATHER CONDITIONS BREAKOUT
WIND DIRECTION BREAKOUT
WEATHER BY HOUR - FEBRUARY 8, 2013
[ °C ]   °F
Local TimeTemperatureDewpointHumidityBarometerVisibilityWind DirectionWind SpeedGust SpeedPrecipitationEventsConditions
1:53 AM14.0 °F9.0 °F80 %29.86 in7.0 miCalmClear
2:53 AM14.0 °F8.1 °F77 %29.85 in10.0 miCalmClear
3:53 AM12.9 °F7.0 °F77 %29.85 in10.0 miCalmClear
4:53 AM10.9 °F6.1 °F81 %29.86 in10.0 miCalmScattered Clouds
5:53 AM12.9 °F8.1 °F81 %29.86 in10.0 miSouth (180°)4.6 mphOvercast
6:53 AM12.0 °F6.1 °F77 %29.88 in10.0 miSouth (190°)3.5 mphClear
7:53 AM12.9 °F7.0 °F77 %29.90 in10.0 miSouth (190°)5.8 mphClear
8:53 AM16.0 °F10.0 °F77 %29.90 in10.0 miSouth (180°)4.6 mphPartly Cloudy
9:53 AM23.0 °F14.0 °F68 %29.86 in10.0 miSSE (160°)3.5 mphScattered Clouds
10:53 AM27.0 °F12.0 °F53 %29.84 in8.0 miVariable3.5 mph0.00 inOvercast
11:10 AM26.6 °F14.0 °F59 %29.79 in3.0 miENE (60°)3.5 mph0.00 inSnowLight Snow
11:39 AM26.6 °F12.2 °F55 %29.79 in8.0 miCalm0.00 inSnowLight Snow
11:53 AM28.0 °F12.0 °F51 %29.83 in10.0 miNNE (30°)5.8 mph0.00 inOvercast
12:53 PM28.0 °F12.0 °F51 %29.84 in8.0 miNNE (30°)8.1 mph0.00 inSnowLight Snow
1:10 PM26.6 °F14.0 °F59 %29.78 in2.5 miENE (60°)5.8 mph0.00 inSnowLight Snow
1:21 PM26.6 °F14.0 °F59 %29.78 in5.0 miNE (50°)4.6 mph0.00 inSnowLight Snow
1:53 PM27.0 °F15.1 °F61 %29.86 in2.5 miNNE (30°)6.9 mph0.00 inSnowLight Snow
2:02 PM26.6 °F15.8 °F64 %29.78 in1.0 miNNE (30°)6.9 mph0.01 inSnowLight Snow
2:10 PM26.6 °F17.6 °F69 %29.78 in0.5 miCalm0.01 inSnowSnow
2:21 PM26.6 °F17.6 °F69 %29.78 in1.5 miCalm0.01 inSnowLight Snow
2:27 PM26.6 °F19.4 °F74 %29.78 in3.0 miCalm0.01 inSnowLight Snow
2:35 PM26.6 °F19.4 °F74 %29.78 in9.0 miSE (130°)3.5 mph0.01 inOvercast
2:53 PM28.9 °F16.0 °F58 %29.86 in10.0 miCalm0.01 inOvercast
3:53 PM28.9 °F16.0 °F58 %29.87 in7.0 miNorth (10°)8.1 mph0.00 inSnowLight Snow
4:53 PM28.0 °F10.9 °F49 %29.88 in10.0 miNNE (20°)3.5 mph0.00 inMostly Cloudy
5:53 PM27.0 °F10.0 °F49 %29.90 in10.0 miNE (40°)5.8 mphOvercast
6:53 PM26.1 °F12.0 °F55 %29.93 in10.0 miNE (40°)8.1 mphOvercast
7:53 PM24.1 °F12.0 °F60 %29.94 in10.0 miCalmMostly Cloudy
8:53 PM19.9 °F10.0 °F65 %29.95 in10.0 miCalmClear
9:53 PM21.9 °F10.0 °F60 %29.92 in10.0 miVariable3.5 mphClear
10:53 PM19.9 °F9.0 °F62 %29.91 in10.0 miCalmPartly Cloudy
11:53 PM19.0 °F10.0 °F68 %29.93 in10.0 miCalmClear
Hourly data recorded from KTVL, located miles away from Meyers, California







STORIES FROM OUR PARTNERS